Other Public Products
Issued by NWS Grand Forks, ND

Home | Current Version | Previous Version | Graphics & Text | Print | Product List | Glossary On
Versions: 1 2 3 4 5 6 7 8 9 10 11 12 13 14 15 16 17 18 19 20 21 22 23 24 25 26 27 28 29 30 31 32 33 34 35 36 37 38 39 40 41 42 43 44 45 46 47 48 49 50
341
FPUS83 KFGF 271610
OPUFGF
PRAIRIE TO PINES WEATHER ROUNDUP
NATIONAL WEATHER SERVICE EASTERN NORTH DAKOTA/GRAND FORKS ND
1100 AM CDT SAT AUG 27 2016

 **SATELLITE DATA USED TO AUGMENT SKY COVER AT AUTOMATED STATIONS**
 *****  WEATHER ACROSS EASTERN NORTH DAKOTA  *****

CITY           SKY/WX    TMP DP  RH WIND       PRES   REMARKS
GRAND FORKS    LGT RAIN  60  58  92 SE9       29.94F
GRAND FORKS AF CLOUDY    60  58  94 S9        29.94F
GRAND CITY NWS   N/A     57 N/A N/A SE9         N/A
BUXTON           N/A     60  59  99 SE8         N/A
DEVILS LAKE    NOT AVBL
FARGO          CLOUDY    67  61  81 S12       29.96S
WAHPETON ARPT  CLOUDY    70  59  68 S12G18    29.99S
$$

 *****  WEATHER ACROSS CENTRAL AND WESTERN NORTH DAKOTA  *****

CITY           SKY/WX    TMP DP  RH WIND       PRES   REMARKS
JAMESTOWN      SUNNY     67  59  75 S3        29.94S
BISMARCK       MOSUNNY   65  54  67 CALM      29.94S
MINOT          SUNNY     67  51  56 N6        29.91S
MINOT AFB      SUNNY     66  50  57 VRB2      29.90S
GARRISON         N/A     67  51  56 SW8       29.92F
WILLISTON      SUNNY     64  48  56 SE5       29.92S
DICKINSON      SUNNY     65  50  58 SW9       29.93S
HETTINGER      SUNNY     67  51  56 S6        29.97S
$$

 *****  OTHER OBSERVATIONS NORTHEAST NORTH DAKOTA  *****

CITY           SKY/WX    TMP DP  RH WIND       PRES   REMARKS
WALHALLA       NOT AVBL
LANGDON        FAIR      68  59  73 SW10G18   29.93S
CAVALIER       PTSUNNY   63  57  82 S14G20    29.92F
GRAFTON        PTSUNNY   61  61 100 S13       29.95F
CANDO          NOT AVBL
FORT TOTTEN      N/A     66  58  75 W3        29.95S
ROLLA          PTSUNNY   63  54  72 SW7       29.92S
RUGBY          FAIR      63  57  82 NW5       29.91
 ***** THE ABOVE OBSERVATIONS ARE NON NWS ARE NOT QUALITY
        CONTROLLED AND MAY MIS-REPORT RAIN FOR SNOW...
$$

 *****  OTHER OBSERVATIONS SOUTHEAST NORTH DAKOTA *****

CITY           SKY/WX    TMP DP  RH WIND       PRES   REMARKS
COOPERSTOWN    NOT AVBL
VALLEY CITY    CLOUDY    64  64 100 SW13      29.97F
OAKES            N/A    N/A N/A N/A MISG        N/A
GWINNER        CLOUDY    66  64  94 S13       29.98S
BUFFALO          N/A     62  60  92 S10         N/A
WYNDMERE       NOT AVBL
 ***** THE ABOVE OBSERVATIONS ARE NON NWS ARE NOT QUALITY
       CONTROLLED AND MAY MIS-REPORT RAIN FOR SNOW...
$$

  *****  WEATHER ACROSS NORTHERN MINNESOTA  *****

CITY           SKY/WX    TMP DP  RH WIND       PRES   REMARKS
FLAG ISLAND    CLOUDY    64  59  82 S7        29.97S HAZE
WARROAD        RAIN      59  55  88 S8        30.00F
ROSEAU         RAIN      59  54  82 S21G26    29.97F
HALLOCK        CLOUDY    61  57  88 S9        29.94F
THF RVR FALLS  RAIN      58  57  97 SE12      30.00F
HALSTAD          N/A     58  57  98 NE5         N/A
FOSSTON        CLOUDY    63  57  82 S8        30.01S
BAUDETTE       LGT RAIN  64  58  80 S8        30.00S
WASKISH        CLOUDY    64  57  77 S7        30.02R
CROOKSTON      RAIN      57  57 100 S8        29.99S
$$
  *****  WEATHER ACROSS CENTRAL AND WEST MINNESOTA  *****

CITY           SKY/WX    TMP DP  RH WIND       PRES   REMARKS
BEMIDJI        CLOUDY    63  56  77 S7        30.03R
PARK RAPIDS    CLOUDY    65  56  72 S7        30.04R
WADENA         PTSUNNY   63  57  82 SW5       30.03S
DETROIT LAKES  CLOUDY    66  57  72 S14       30.01F
MOORHEAD       CLOUDY    68  61  77 S12       29.97S
FERGUS FALLS   CLOUDY    66  59  77 S14       30.01F
ELBOW LAKE     CLOUDY    65  58  80 S9        30.03S
MORRIS MN      MOSUNNY   66  57  72 SE13G18   30.01S
STAPLES        CLOUDY    66  57  72 S10       30.03S
WHEATON        MOSUNNY   72  63  73 S8        30.01F
$$
  *****  WEATHER ELSEWHERE ACROSS MINNESOTA  *****

CITY           SKY/WX    TMP DP  RH WIND       PRES   REMARKS
DULUTH         LGT RAIN  62  58  86 SE7       30.09F
INTRNTL FALLS  CLOUDY    68  55  63 VRB6      30.03F
ELY            CLOUDY    64  54  68 S6        30.08F
CLOQUET        DRIZZLE   61  55  82 SE5       30.08F
BRAINERD       CLOUDY    66  59  78 S12       30.04F
HIBBING        PTSUNNY   63  57  81 SE7       30.07F
ALEXANDRIA     CLOUDY    66  55  67 S12       30.05R
SAINT CLOUD    LGT RAIN  63  62  97 S10       30.04F
MINNEAPOLIS    CLOUDY    64  59  83 SE5       30.06F HAZE
$$

  *****  WEATHER ACROSS SOUTH DAKOTA  *****

CITY           SKY/WX    TMP DP  RH WIND       PRES   REMARKS
SIOUX FALLS    CLOUDY    66  63  90 CALM      30.02S
BROOKINGS      CLOUDY    62  59  90 SE6       30.02S
WATERTOWN      CLOUDY    65  58  78 S10       30.01F
HURON          CLOUDY    66  60  81 S12       29.98F
SISSETON         N/A     70  60  70 S13G20    29.98F
ABERDEEN       CLOUDY    65  60  84 S14       29.97F
MITCHELL       MOSUNNY   69  61  75 VRB6      30.00F
PIERRE         SUNNY     69  55  60 SW6       29.95S
MOBRIDGE       SUNNY     69  58  67 SW6       29.93F
RAPID CITY     SUNNY     67  53  61 S15       29.98F
$$

  *****  SOME WEATHER IN NEARBY STATES *****

CITY           SKY/WX    TMP DP  RH WIND       PRES   REMARKS
GLASGOW MT     MOSUNNY   63  47  55 SE13      29.84F
GREAT FALLS MT CLOUDY    70  35  27 SW20G28   29.82F
CHEYENNE WY    SUNNY     72  37  28 VRB6      30.16F
SCOTTSBLUFF NE PTSUNNY   61  55  81 VRB3      30.07F
OMAHA NE       MOSUNNY   75  66  73 S5        30.02F
DES MOINES IA  CLOUDY    69  66  90 SE5       30.03F FOG
DAVENPORT IA   CLOUDY    76  69  79 W14       30.02F
CHICAGO IL     CLOUDY    74  70  87 S12       30.05S
EAU CLAIRE WI  CLOUDY    68  58  70 SE8       30.06F
LA CROSSE WI   CLOUDY    66  61  84 SE7       30.04F
$$

  *****  SOME NATIONAL WEATHER *****

CITY           SKY/WX    TMP DP  RH WIND       PRES   REMARKS
LA GUARDIA NY  MOSUNNY   84  62  47 NE9       30.18F
RALEIGH NC     MOSUNNY   93  72  50 E9        30.13S HX 101
ATLANTA GA     MOSUNNY   85  70  60 E6        30.13F
NEW ORLEANS LA CLOUDY    86  78  77 NE8       29.99S HX  98
OKLAHOMA CITY  CLOUDY    83  71  67 S8        30.06R
ALBUQUERQUE NM MOSUNNY   71  51  49 SW5       30.22S
SALT LAKE CITY MOSUNNY   75  43  31 SE12      30.07S
LOS ANGELES CA CLOUDY    68  56  65 S3        30.00R
BOISE ID       SUNNY     71  33  24 SE7       29.95S
SEATTLE WA     CLOUDY    62  55  77 S14       29.86R
$$

*** WEATHER ACROSS MANITOBA...SASKATCHEWAN AND ONTARIO ***
                ***ONTARIO***

CITY           SKY/WX    TMP DP  RH WIND       PRES   REMARKS
GERALDTON      MOSUNNY   64  55  72 S8        30.12F
THUNDER BAY    PTSUNNY   66  54  63 VRB2      30.10F
SIOUX LOOKOUT  MOSUNNY   70  54  56 S8        30.03F
TORONTO        PTSUNNY   75  57  53 SE7       30.20F
BIG TROUT LK   PTSUNNY   64  55  72 SW8       29.95S
PICKLE LAKE    PTSUNNY   66  55  68 S8        30.01F
DRYDEN         CLOUDY    68  55  64 S10       30.02F
KENORA         PTSUNNY   64  55  72 S10       29.99F
$$
                *** MANITOBA***

CITY           SKY/WX    TMP DP  RH WIND       PRES   REMARKS
BRANDON        MOSUNNY   64  55  72 W8        29.88S
DAUPHIN        SUNNY     64  57  77 W8        29.84S
ISLAND LAKE    PTSUNNY   64  57  77 S7        29.87S
PILOT MOUND      N/A     64  52  63 W5          N/A
THE PAS        CLOUDY    59  55  88 N3        29.81S
THOMPSON       PTSUNNY   57  54  88 NE3       29.84F
WINNIPEG       PTSUNNY   63  55  77 S15G21    29.90F
LYNN LAKE      SUNNY     63  45  51 MISG      29.83F
CHURCHILL      MOSUNNY   61  50  67 S13G20    29.87S
GILLAM         CLOUDY    55  54  94 SE5       29.87F
$$
                ***SASKATCHEWAN***

CITY           SKY/WX    TMP DP  RH WIND       PRES   REMARKS
ESTEVAN        MOSUNNY   66  50  55 SW7       29.90S
KINDERSLEY     PTSUNNY   59  48  67 SE14      29.66F
LLOYDMINSTER   CLOUDY    59  50  72 SE16      29.64F
PRINCE ALBERT  CLOUDY    55  55 100 E9        29.80S
REGINA         MOSUNNY   63  50  63 SE7       29.85F
YORKTON        CLOUDY    59  55  88 N6        29.85S
N. BATTLEFORD  SUNNY     61  52  72 SE14      29.71F  C1F1C2F2C3F3C4F4C5F5C6F6C7F7C8F8C9F9CaFaCbFbCcFcCdFdCe!



USA.gov is the U.S. government's official web portal to all federal, state and local government web resources and services.